TimeCDT,TemperatureF,Dew PointF,Humidity,Sea Level PressureIn,VisibilityMPH,Wind Direction,Wind SpeedMPH,Gust SpeedMPH,PrecipitationIn,Events,Conditions,WindDirDegrees,DateUTC
12:15 AM,75.2,71.6,89,29.83,10.0,ESE,3.5,-,N/A,,Clear,110,2013-09-09 05:15:00
12:35 AM,73.4,71.6,94,29.83,10.0,Calm,Calm,-,N/A,,Clear,0,2013-09-09 05:35:00
12:55 AM,73.4,69.8,88,29.83,10.0,Calm,Calm,-,N/A,,Clear,0,2013-09-09 05:55:00
1:15 AM,73.4,71.6,94,29.82,10.0,Calm,Calm,-,N/A,,Clear,0,2013-09-09 06:15:00
1:35 AM,71.6,69.8,94,29.82,9.0,Calm,Calm,-,N/A,,Clear,0,2013-09-09 06:35:00
1:55 AM,71.6,69.8,94,29.82,9.0,Calm,Calm,-,N/A,,Clear,0,2013-09-09 06:55:00
2:15 AM,69.8,69.8,100,29.82,6.0,Calm,Calm,-,N/A,,Clear,0,2013-09-09 07:15:00
2:35 AM,69.8,69.8,100,29.81,7.0,Calm,Calm,-,N/A,,Clear,0,2013-09-09 07:35:00
2:55 AM,69.8,69.8,100,29.81,6.0,Calm,Calm,-,N/A,,Clear,0,2013-09-09 07:55:00
3:15 AM,69.8,69.8,100,29.81,5.0,Calm,Calm,-,N/A,,Clear,0,2013-09-09 08:15:00
3:35 AM,69.8,69.8,100,29.81,1.8,Calm,Calm,-,N/A,,Clear,0,2013-09-09 08:35:00
3:55 AM,69.8,69.8,100,29.81,2.5,Calm,Calm,-,N/A,,Clear,0,2013-09-09 08:55:00
4:15 AM,69.8,69.8,100,29.81,2.5,Calm,Calm,-,N/A,,Clear,0,2013-09-09 09:15:00
4:35 AM,69.8,69.8,100,29.81,3.0,Calm,Calm,-,N/A,,Clear,0,2013-09-09 09:35:00
4:55 AM,69.8,69.8,100,29.81,2.5,Calm,Calm,-,N/A,,Clear,0,2013-09-09 09:55:00
5:15 AM,69.8,69.8,100,29.81,1.8,Calm,Calm,-,N/A,,Clear,0,2013-09-09 10:15:00
5:35 AM,69.8,68.0,94,29.81,2.0,Calm,Calm,-,N/A,,Clear,0,2013-09-09 10:35:00
5:55 AM,68.0,68.0,100,29.81,5.0,SSE,4.6,-,N/A,,Clear,160,2013-09-09 10:55:00
6:15 AM,73.4,68.0,83,29.81,10.0,SSW,6.9,-,N/A,,Clear,210,2013-09-09 11:15:00
6:35 AM,75.2,68.0,78,29.82,10.0,SSW,8.1,-,N/A,,Clear,210,2013-09-09 11:35:00
6:55 AM,75.2,66.2,73,29.82,10.0,SW,9.2,-,N/A,,Clear,220,2013-09-09 11:55:00
7:15 AM,77.0,66.2,69,29.83,10.0,SW,6.9,12.7,N/A,,Clear,230,2013-09-09 12:15:00
7:35 AM,78.8,66.2,65,29.83,10.0,SW,9.2,-,N/A,,Clear,220,2013-09-09 12:35:00
7:55 AM,78.8,66.2,65,29.83,10.0,SW,6.9,12.7,N/A,,Clear,230,2013-09-09 12:55:00
8:15 AM,78.8,66.2,65,29.84,10.0,SW,8.1,-,N/A,,Clear,220,2013-09-09 13:15:00
8:35 AM,80.6,66.2,61,29.84,10.0,SW,9.2,-,N/A,,Clear,220,2013-09-09 13:35:00
8:55 AM,82.4,66.2,58,29.84,10.0,SW,9.2,-,N/A,,Clear,220,2013-09-09 13:55:00
9:15 AM,82.4,64.4,54,29.84,10.0,WSW,10.4,16.1,N/A,,Clear,240,2013-09-09 14:15:00
9:35 AM,84.2,64.4,51,29.84,10.0,SW,12.7,19.6,N/A,,Clear,230,2013-09-09 14:35:00
9:55 AM,86.0,64.4,48,29.83,10.0,SW,12.7,19.6,N/A,,Clear,220,2013-09-09 14:55:00
10:15 AM,87.8,64.4,46,29.83,9.0,SW,11.5,-,N/A,,Clear,230,2013-09-09 15:15:00
10:35 AM,89.6,64.4,43,29.83,10.0,SW,13.8,-,N/A,,Clear,230,2013-09-09 15:35:00
10:55 AM,89.6,62.6,40,29.83,10.0,WSW,13.8,19.6,N/A,,Clear,240,2013-09-09 15:55:00
11:15 AM,91.4,62.6,38,29.83,10.0,SW,15.0,-,N/A,,Clear,230,2013-09-09 16:15:00
11:35 AM,93.2,62.6,36,29.83,10.0,SW,11.5,17.3,N/A,,Clear,220,2013-09-09 16:35:00
11:55 AM,95.0,62.6,34,29.83,10.0,SW,11.5,18.4,N/A,,Clear,230,2013-09-09 16:55:00
12:15 PM,95.0,62.6,34,29.82,10.0,SSW,11.5,18.4,N/A,,Clear,210,2013-09-09 17:15:00
12:35 PM,96.8,62.6,32,29.82,10.0,SW,11.5,-,N/A,,Clear,220,2013-09-09 17:35:00
12:55 PM,96.8,62.6,32,29.82,10.0,SSW,12.7,20.7,N/A,,Clear,200,2013-09-09 17:55:00
1:15 PM,96.8,60.8,30,29.81,10.0,WSW,11.5,18.4,N/A,,Clear,240,2013-09-09 18:15:00
1:35 PM,98.6,62.6,30,29.81,10.0,SW,12.7,20.7,N/A,,Clear,230,2013-09-09 18:35:00
1:55 PM,98.6,60.8,29,29.81,10.0,SSW,16.1,23.0,N/A,,Clear,210,2013-09-09 18:55:00
2:15 PM,98.6,60.8,29,29.81,10.0,SW,16.1,25.3,N/A,,Clear,220,2013-09-09 19:15:00
2:55 PM,98.6,60.8,29,29.80,10.0,SSW,19.6,27.6,N/A,,Clear,210,2013-09-09 19:55:00
3:15 PM,100.4,60.8,27,29.79,10.0,SW,17.3,26.5,N/A,,Clear,220,2013-09-09 20:15:00
3:35 PM,98.6,60.8,29,29.79,10.0,SW,15.0,21.9,N/A,,Clear,220,2013-09-09 20:35:00
3:55 PM,98.6,59.0,27,29.79,10.0,SSW,21.9,28.8,N/A,,Clear,210,2013-09-09 20:55:00
4:15 PM,98.6,60.8,29,29.79,10.0,WSW,23.0,29.9,N/A,,Clear,240,2013-09-09 21:15:00
4:35 PM,98.6,60.8,29,29.79,-9999.0,SW,17.3,25.3,N/A,,Clear,230,2013-09-09 21:35:00
4:55 PM,98.6,60.8,29,29.79,10.0,South,18.4,32.2,N/A,,Clear,190,2013-09-09 21:55:00
5:15 PM,98.6,59.0,27,29.80,10.0,SW,20.7,28.8,N/A,,Clear,220,2013-09-09 22:15:00
5:35 PM,96.8,59.0,28,29.80,10.0,SW,18.4,26.5,N/A,,Clear,220,2013-09-09 22:35:00
5:55 PM,96.8,60.8,30,29.80,10.0,SW,13.8,23.0,N/A,,Clear,220,2013-09-09 22:55:00
6:15 PM,95.0,60.8,32,29.80,10.0,SSW,12.7,23.0,N/A,,Clear,210,2013-09-09 23:15:00
6:35 PM,95.0,62.6,34,29.81,10.0,SSW,13.8,-,N/A,,Clear,210,2013-09-09 23:35:00
6:55 PM,93.2,60.8,34,29.81,10.0,SSW,13.8,20.7,N/A,,Clear,210,2013-09-09 23:55:00
7:15 PM,91.4,60.8,36,29.81,10.0,SW,10.4,-,N/A,,Clear,220,2013-09-10 00:15:00
7:35 PM,91.4,60.8,36,29.82,10.0,SSW,8.1,-,N/A,,Clear,210,2013-09-10 00:35:00
7:55 PM,89.6,60.8,38,29.82,10.0,SSW,8.1,-,N/A,,Clear,210,2013-09-10 00:55:00
8:15 PM,87.8,62.6,43,29.83,10.0,SSW,6.9,-,N/A,,Clear,210,2013-09-10 01:15:00
8:35 PM,87.8,62.6,43,29.84,10.0,SSW,8.1,-,N/A,,Clear,210,2013-09-10 01:35:00
8:55 PM,87.8,62.6,43,29.84,10.0,SSW,10.4,-,N/A,,Clear,210,2013-09-10 01:55:00
9:15 PM,87.8,62.6,43,29.85,10.0,SSW,9.2,16.1,N/A,,Clear,210,2013-09-10 02:15:00
9:35 PM,86.0,62.6,45,29.85,10.0,SSW,9.2,-,N/A,,Clear,200,2013-09-10 02:35:00
9:55 PM,86.0,62.6,45,29.85,10.0,SSW,10.4,-,N/A,,Clear,210,2013-09-10 02:55:00
10:15 PM,86.0,62.6,45,29.86,10.0,SSW,10.4,-,N/A,,Clear,210,2013-09-10 03:15:00
10:35 PM,84.2,62.6,48,29.86,10.0,SSW,11.5,-,N/A,,Clear,200,2013-09-10 03:35:00
10:55 PM,84.2,62.6,48,29.87,10.0,SSW,11.5,-,N/A,,Clear,210,2013-09-10 03:55:00
11:15 PM,84.2,62.6,48,29.87,10.0,SSW,10.4,17.3,N/A,,Clear,210,2013-09-10 04:15:00
11:35 PM,84.2,60.8,45,29.87,10.0,SSW,15.0,-,N/A,,Clear,210,2013-09-10 04:35:00
11:55 PM,82.4,60.8,48,29.88,10.0,SSW,12.7,-,N/A,,Clear,210,2013-09-10 04:55:00